Location: Casteau
(50.5142°N, 4.0161°E)
Time: 02:31:03
(UTC+00:00)

Cosmos 1844 Rocket - Pass Details

Date: 18 September 2020
Orbit: 823 x 846 km, 71.0° (Epoch: 24 October)

Event Time Altitude Azimuth Distance (km) Brightness Sun altitude
Rises 19:39:09 0° 191° (S) 3,346 5.7 -17.5°
Reaches altitude 10° 19:41:37 10° 186° (S) 2,419 4.9 -17.9°
Maximum altitude 19:46:58 52° 111° (ESE) 1,025 2.7 -18.7°
Drops below altitude 10° 19:52:22 10° 37° (NE) 2,445 5.0 -19.4°
Sets 19:54:52 0° 33° (NNE) 3,386 5.8 -19.8°
